Dickinson, ND

7:25 AM MDT on October 17, 2017 (GMT -0600)
Dickinson Municipal

Weather History for KDIK - March, 2013

Change the Weather History Date:

Thursday, March 7, 2013

  Actual Average Record
Temperature  
Mean Temperature 27 °F 26 °F  
Max Temperature 35 °F 37 °F 65 °F (1898)
Min Temperature 18 °F 16 °F -22 °F (1996)
Degree Days  
Heating Degree Days 38 39  
Month to date heating degree days 262 278  
Since 1 July heating degree days 6240 6572  
Cooling Degree Days 0 0  
Month to date cooling degree days 0 0  
Year to date cooling degree days 0 0  
Moisture  
Dew Point 23 °F    
Average Humidity 86    
Maximum Humidity 96    
Minimum Humidity 75    
Precipitation  
Precipitation 0.00 in 0.02 in 0.20 in (1949)
Month to date precipitation 0.22 0.12  
Year to date precipitation 0.30 0.75  
Sea Level Pressure  
Sea Level Pressure 30.03 in    
Wind  
Wind Speed 9 mph (WSW)    
Max Wind Speed 21 mph    
Max Gust Speed 25 mph    
Visibility 10 miles    
Events      
T = Trace of Precipitation, MM = Missing Value Source: NWS Daily Summary

Daily Weather History Graph

Daily Weather History Graph

Search for Another Location

Airport or City:

Trip Planner

Search our weather history database for the weather conditions in past years. The results will help you decide how hot, cold, wet, or windy it might be!

Date:

Astronomy

Mar. 07, 2013 Rise Set
Actual Time 6:18 AM MST 5:46 PM MST
Civil Twilight 5:48 AM MST 6:16 PM MST
Nautical Twilight 5:13 AM MST 6:51 PM MST
Astronomical Twilight 4:38 AM MST 7:27 PM MST
Moon 3:34 AM MST (3/7) 1:23 PM MST (3/7)
Length of Visible Light 12h 27m
Length of Day
11h 27m
Waning Crescent, 19% of the Moon is Illuminated
Mar 7
Waning Crescent
Mar 11
New
Mar 19
First Quarter
Mar 27
Full
Apr 2
Last Quarter

Hourly Weather History & Observations

Time (MST) Temp. Windchill Dew Point Humidity Pressure Visibility Wind Dir Wind Speed Gust Speed Precip Events Conditions
12:56 AM 19.0 °F 5.0 °F 16.0 °F 88% 29.99 in 10.0 mi ESE 15.0 mph 25.3 mph N/A   Overcast
1:56 AM 19.9 °F 5.2 °F 17.1 °F 89% 29.96 in 10.0 mi ESE 17.3 mph - N/A   Overcast
2:56 AM 21.0 °F 8.1 °F 18.0 °F 88% 29.94 in 10.0 mi SE 13.8 mph - N/A   Overcast
3:56 AM 19.9 °F 6.7 °F 18.0 °F 92% 29.95 in 10.0 mi SE 13.8 mph - N/A   Overcast
4:56 AM 19.9 °F 9.3 °F 18.0 °F 92% 29.96 in 10.0 mi SE 9.2 mph - N/A   Overcast
5:56 AM 19.9 °F 10.1 °F 17.1 °F 89% 29.97 in 9.0 mi SE 8.1 mph - N/A   Overcast
6:19 AM 19.4 °F 10.4 °F 17.6 °F 93% 29.86 in 9.0 mi ESE 6.9 mph - N/A   Overcast
6:56 AM 19.0 °F 8.2 °F 17.1 °F 92% 29.99 in 7.0 mi ESE 9.2 mph - N/A   Overcast
7:56 AM 19.9 °F 14.9 °F 17.1 °F 89% 30.03 in 7.0 mi SSE 3.5 mph - N/A   Overcast
8:56 AM 21.0 °F 16.2 °F 18.0 °F 88% 30.04 in 8.0 mi SSE 3.5 mph - N/A   Overcast
9:56 AM 24.1 °F 19.7 °F 21.0 °F 88% 30.02 in 10.0 mi South 3.5 mph - N/A   Overcast
10:34 AM 26.6 °F - 21.2 °F 80% 29.90 in 10.0 mi Calm Calm - N/A   Scattered Clouds
10:49 AM 28.4 °F 19.7 °F 24.8 °F 86% 29.92 in 10.0 mi West 9.2 mph - N/A   Mostly Cloudy
10:56 AM 27.0 °F 18.7 °F 23.0 °F 85% 30.04 in 10.0 mi WSW 8.1 mph - N/A   Mostly Cloudy
11:56 AM 28.9 °F 21.1 °F 24.1 °F 82% 30.04 in 10.0 mi WNW 8.1 mph - N/A   Mostly Cloudy
12:12 PM 30.2 °F 23.4 °F 24.8 °F 80% 29.94 in 10.0 mi West 6.9 mph - N/A   Scattered Clouds
1:40 PM 33.8 °F 25.8 °F 26.6 °F 75% 29.96 in 10.0 mi WNW 10.4 mph - N/A   Mostly Cloudy
1:56 PM 34.0 °F 25.5 °F 27.0 °F 75% 30.06 in 10.0 mi West 11.5 mph - N/A   Overcast
2:56 PM 34.0 °F 24.6 °F 28.0 °F 79% 30.07 in 10.0 mi WNW 13.8 mph 23.0 mph N/A   Overcast
3:56 PM 33.1 °F 22.6 °F 28.0 °F 82% 30.09 in 10.0 mi WNW 16.1 mph - N/A   Overcast
4:53 PM 33.8 °F 24.8 °F 28.4 °F 81% 30.00 in 10.0 mi WNW 12.7 mph - N/A   Partly Cloudy
4:56 PM 33.1 °F 23.9 °F 28.0 °F 82% 30.10 in 10.0 mi WNW 12.7 mph - N/A   Partly Cloudy
5:51 PM 30.2 °F 23.4 °F 26.6 °F 86% 30.03 in 10.0 mi NW 6.9 mph - N/A   Mostly Cloudy
5:56 PM 30.9 °F 24.3 °F 27.0 °F 85% 30.13 in 10.0 mi NW 6.9 mph - N/A   Mostly Cloudy
6:33 PM 30.2 °F 24.3 °F 26.6 °F 86% 30.04 in 10.0 mi WNW 5.8 mph - N/A   Scattered Clouds
6:56 PM 28.0 °F 22.8 °F 25.0 °F 88% 30.15 in 10.0 mi West 4.6 mph - N/A   Clear
7:56 PM 27.0 °F 19.5 °F 24.1 °F 89% 30.16 in 10.0 mi NW 6.9 mph - N/A   Clear
8:56 PM 27.0 °F 18.7 °F 25.0 °F 92% 30.16 in 10.0 mi NW 8.1 mph - N/A   Clear
9:56 PM 27.0 °F - 23.0 °F 85% 30.17 in 10.0 mi Calm Calm - N/A   Clear
10:56 PM 23.0 °F 17.0 °F 21.0 °F 92% 30.19 in 10.0 mi SSW 4.6 mph - N/A   Clear
11:56 PM 23.0 °F 13.9 °F 21.0 °F 92% 30.19 in 10.0 mi South 8.1 mph - N/A   Clear